Location: Allos
(44.2333°N, 6.6333°E)
Time: 23:41:26
(UTC+00:00)

SAR-Lupe-4 - Pass Details

Date: 18 April 2021
Orbit: 483 x 483 km, 98.2° (Epoch: 13 April)

Event Time Altitude Azimuth Distance (km) Brightness Sun altitude
Rises 19:19:12 0° 5° (N) 2,560 7.5 -10.4°
Maximum altitude 19:24:43 38° 289° (WNW) 754 5.2 -11.3°
Drops below altitude 10° 19:28:03 10° 220° (SW) 1,661 6.4 -11.8°
Sets 19:30:11 0° 213° (SSW) 2,536 7.3 -12.1°
